| time (UTC) | temp F | wind direction | speed MPH | gust MPH | rain 1hr in | rain 24hr in | rain mn in | humidity % | barometer mb |
| 20260905123030 | 69 | 142 | 0.0 | 0.0 | 0.00 | 0.19 | 0.00 | 100 | 1024.6 |
| 20260905120325 | 68 | 142 | 0.0 | 0.0 | 0.00 | 0.19 | 0.00 | 100 | 1024.4 |
| 20260905120019 | 68 | 142 | 0.0 | 0.0 | 0.00 | 0.19 | 0.00 | 100 | 1024.5 |
| 20260905113017 | 67 | 142 | 0.0 | 0.0 | 0.00 | 0.19 | 0.00 | 100 | 1024.5 |
| 20260905110334 | 67 | 142 | 0.0 | 0.0 | 0.00 | 0.19 | 0.00 | 100 | 1024.6 |
| 20260905110032 | 67 | 142 | 0.0 | 0.0 | 0.00 | 0.19 | 0.00 | 100 | 1024.7 |
| 20260905103032 | 67 | 142 | 0.0 | 0.0 | 0.00 | 0.19 | 0.00 | 100 | 1024.6 |
| 20260905100333 | 67 | 142 | 0.0 | 1.0 | 0.00 | 0.19 | 0.00 | 100 | 1024.2 |
| 20260905100028 | 67 | 142 | 0.0 | 1.0 | 0.00 | 0.19 | 0.00 | 100 | 1024.1 |
| 20260905093045 | 68 | 144 | 1.0 | 2.0 | 0.00 | 0.19 | 0.00 | 100 | 1023.8 |
| 20260905090343 | 68 | 130 | 2.0 | 5.0 | 0.00 | 0.19 | 0.00 | 100 | 1023.6 |
| 20260905090047 | 68 | 134 | 2.0 | 5.0 | 0.00 | 0.19 | 0.00 | 100 | 1023.6 |
| 20260905083026 | 68 | 88 | 0.0 | 3.0 | 0.00 | 0.19 | 0.00 | 100 | 1023.3 |
| 20260905080310 | 66 | 327 | 0.0 | 0.0 | 0.00 | 0.19 | 0.00 | 100 | 1023.6 |
| 20260905080130 | 66 | 327 | 0.0 | 0.0 | 0.00 | 0.19 | 0.00 | 100 | 1023.5 |
| 20260905073011 | 66 | 327 | 0.0 | 0.0 | 0.00 | 0.19 | 0.00 | 100 | 1023.4 |
| 20260905070312 | 67 | 327 | 0.0 | 0.0 | 0.00 | 0.19 | 0.00 | 100 | 1023.1 |
| 20260905070034 | 67 | 327 | 0.0 | 0.0 | 0.00 | 0.19 | 0.00 | 100 | 1023.2 |
| 20260905063033 | 67 | 327 | 0.0 | 0.0 | 0.00 | 0.20 | 0.00 | 100 | 1023.8 |
| 20260905060311 | 68 | 327 | 0.0 | 0.0 | 0.00 | 0.20 | 0.00 | 100 | 1024.1 |
| 20260905060055 | 68 | 327 | 0.0 | 0.0 | 0.00 | 0.20 | 0.00 | 100 | 1024.1 |
| 20260905053011 | 67 | 327 | 0.0 | 0.0 | 0.00 | 0.20 | 0.00 | 100 | 1024.5 |
| 20260905050335 | 67 | 327 | 0.0 | 0.0 | 0.00 | 0.20 | 0.00 | 100 | 1024.6 |
| 20260905050051 | 67 | 327 | 0.0 | 0.0 | 0.00 | 0.20 | 0.00 | 100 | 1024.6 |
| 20260905043011 | 67 | 327 | 0.0 | 0.0 | 0.00 | 0.20 | 0.00 | 100 | 1024.7 |
| 20260905040313 | 67 | 327 | 0.0 | 0.0 | 0.00 | 0.20 | 0.00 | 100 | 1024.6 |
| 20260905040014 | 67 | 327 | 0.0 | 0.0 | 0.00 | 0.20 | 0.00 | 99 | 1024.6 |
| 20260905033105 | 68 | 327 | 0.0 | 0.0 | 0.00 | 0.20 | 0.20 | 99 | 1024.5 |
| 20260905030351 | 69 | 327 | 0.0 | 1.0 | 0.00 | 0.20 | 0.20 | 99 | 1024.5 |
| 20260905030027 | 69 | 327 | 0.0 | 1.0 | 0.00 | 0.20 | 0.20 | 99 | 1024.4 |
| 20260905023009 | 70 | 327 | 0.0 | 1.0 | 0.00 | 0.20 | 0.20 | 99 | 1024.7 |
| 20260905020349 | 70 | 327 | 0.0 | 0.0 | 0.00 | 0.20 | 0.20 | 98 | 1024.8 |
| 20260905020025 | 70 | 327 | 0.0 | 3.0 | 0.00 | 0.20 | 0.20 | 98 | 1024.8 |
| 20260905013009 | 70 | 262 | 0.0 | 0.0 | 0.00 | 0.20 | 0.20 | 98 | 1024.6 |
| 20260905010359 | 71 | 262 | 0.0 | 1.0 | 0.00 | 0.20 | 0.20 | 98 | 1024.5 |
| 20260905010316 | 71 | 262 | 0.0 | 1.0 | 0.00 | 0.20 | 0.20 | 98 | 1024.5 |
| 20260905010029 | 71 | 262 | 0.0 | 1.0 | 0.00 | 0.20 | 0.20 | 98 | 1024.6 |
| 20260905003036 | 71 | 262 | 0.0 | 2.0 | 0.00 | 0.21 | 0.20 | 97 | 1024.6 |
| 20260905000402 | 72 | 271 | 0.0 | 0.0 | 0.00 | 0.21 | 0.20 | 96 | 1024.7 |
| 20260905000012 | 72 | 271 | 0.0 | 0.0 | 0.00 | 0.21 | 0.20 | 96 | 1024.7 |
| 20260904233023 | 73 | 271 | 0.0 | 1.0 | 0.00 | 0.46 | 0.20 | 94 | 1024.9 |
| 20260904230346 | 74 | 246 | 1.0 | 4.0 | 0.00 | 0.46 | 0.20 | 92 | 1024.8 |
| 20260904230021 | 75 | 332 | 1.0 | 3.0 | 0.00 | 0.46 | 0.20 | 92 | 1024.8 |
| 20260904223111 | 75 | 41 | 1.0 | 6.0 | 0.00 | 1.03 | 0.20 | 92 | 1024.5 |
| 20260904220329 | 76 | 355 | 2.0 | 4.0 | 0.00 | 1.03 | 0.20 | 91 | 1024.2 |
| 20260904220113 | 77 | 28 | 2.0 | 4.0 | 0.00 | 1.03 | 0.20 | 91 | 1024.2 |
| 20260904213037 | 77 | 34 | 1.0 | 4.0 | 0.00 | 1.03 | 0.20 | 89 | 1023.5 |
| 20260904210317 | 77 | 136 | 0.0 | 3.0 | 0.00 | 1.03 | 0.20 | 88 | 1023.0 |
| 20260904210035 | 77 | 136 | 0.0 | 3.0 | 0.00 | 1.03 | 0.20 | 88 | 1023.0 |
| 20260904203059 | 77 | 321 | 1.0 | 4.0 | 0.00 | 1.03 | 0.20 | 88 | 1023.5 |
| 20260904200337 | 77 | 333 | 3.0 | 6.0 | 0.00 | 1.03 | 0.20 | 91 | 1023.8 |
| 20260904200035 | 77 | 317 | 2.0 | 5.0 | 0.00 | 1.03 | 0.20 | 92 | 1024.0 |
| 20260904193057 | 75 | 247 | 3.0 | 5.0 | 0.00 | 1.03 | 0.20 | 96 | 1024.4 |
| 20260904190309 | 74 | 187 | 2.0 | 7.0 | 0.00 | 1.03 | 0.20 | 97 | 1024.6 |
| 20260904190033 | 74 | 165 | 3.0 | 7.0 | 0.00 | 1.03 | 0.20 | 98 | 1024.6 |
| 20260904183118 | 73 | 246 | 4.0 | 8.0 | 0.00 | 1.03 | 0.20 | 99 | 1025.0 |
| 20260904180310 | 72 | 194 | 4.0 | 6.0 | 0.01 | 1.03 | 0.20 | 100 | 1025.5 |
| 20260904180053 | 72 | 207 | 2.0 | 5.0 | 0.01 | 1.03 | 0.20 | 100 | 1025.6 |
| 20260904173031 | 72 | 223 | 1.0 | 3.0 | 0.04 | 1.03 | 0.20 | 100 | 1026.2 |
| 20260904170408 | 72 | 317 | 1.0 | 3.0 | 0.04 | 1.02 | 0.19 | 100 | 1026.5 |
| 20260904170023 | 72 | 317 | 1.0 | 3.0 | 0.04 | 1.02 | 0.19 | 100 | 1026.5 |
| 20260904163052 | 72 | 203 | 2.0 | 4.0 | 0.02 | 0.99 | 0.16 | 100 | 1026.8 |
| 20260904160328 | 72 | 223 | 0.0 | 1.0 | 0.05 | 0.98 | 0.15 | 100 | 1026.9 |
| 20260904160107 | 72 | 218 | 0.0 | 0.0 | 0.05 | 0.98 | 0.15 | 100 | 1026.9 |
| 20260904153025 | 71 | 220 | 0.0 | 1.0 | 0.10 | 0.97 | 0.14 | 100 | 1026.7 |
| 20260904150343 | 71 | 143 | 1.0 | 4.0 | 0.09 | 0.93 | 0.10 | 100 | 1027.0 |
| 20260904150041 | 71 | 232 | 2.0 | 4.0 | 0.09 | 0.93 | 0.10 | 100 | 1026.8 |
| 20260904143058 | 71 | 186 | 1.0 | 5.0 | 0.03 | 0.87 | 0.04 | 100 | 1027.2 |
| 20260904140409 | 71 | 233 | 0.0 | 3.0 | 0.00 | 0.84 | 0.01 | 100 | 1026.7 |
| 20260904140327 | 71 | 233 | 0.0 | 3.0 | 0.00 | 0.84 | 0.01 | 100 | 1026.7 |
| 20260904140105 | 71 | 233 | 1.0 | 3.0 | 0.00 | 0.84 | 0.01 | 100 | 1026.6 |
| 20260904133029 | 71 | 217 | 0.0 | 0.0 | 0.00 | 0.85 | 0.01 | 100 | 1025.9 |
| 20260904130352 | 70 | 217 | 0.0 | 0.0 | 0.00 | 0.85 | 0.01 | 100 | 1026.5 |
| 20260904130135 | 70 | 217 | 0.0 | 0.0 | 0.00 | 0.85 | 0.01 | 100 | 1026.4 |